Location: ????
(33.1659°N, 35.6604°E)
Time: 06:44:13
(UTC+00:00)

Meteor 1-4 Rocket - Pass Details

Date: 20 September 2019
Orbit: 449 x 504 km, 81.2° (Epoch: 14 October)

Event Time Altitude Azimuth Distance (km) Brightness Sun altitude
Rises 17:24:49 0° 353° (N) 2,492 6.5 -22.9°
Reaches altitude 10° 17:26:55 10° 355° (N) 1,606 5.4 -23.4°
Enters shadow 17:28:28 24° 358° (N) 980 4.2 -23.7°
